Time,TemperatureF,DewpointF,PressureIn,WindDirection,WindDirectionDegrees,WindSpeedMPH,WindSpeedGustMPH,Humidity,HourlyPrecipIn,Conditions,Clouds,dailyrainin,SoftwareType,DateUTC
2013-06-15 00:00:00,62.9,55.2,29.62,WNW,293,0.0,0.0,76,0.00,,,0.00,WUHU216HW,2013-06-15 04:00:00,
2013-06-15 00:01:00,62.9,55.2,29.62,WNW,293,0.0,0.0,76,0.00,,,0.00,WUHU216HW,2013-06-15 04:01:00,
2013-06-15 00:03:00,62.7,55.0,29.62,WNW,293,0.0,0.0,76,0.00,,,0.00,WUHU216HW,2013-06-15 04:03:00,
2013-06-15 00:08:00,62.7,55.0,29.62,WNW,293,0.0,0.0,76,0.00,,,0.00,WUHU216HW,2013-06-15 04:08:00,
2013-06-15 00:13:00,62.7,55.0,29.62,WNW,293,0.0,0.0,76,0.00,,,0.00,WUHU216HW,2013-06-15 04:13:00,
2013-06-15 00:18:00,62.6,55.2,29.63,WNW,293,0.0,0.0,77,0.00,,,0.00,WUHU216HW,2013-06-15 04:18:00,
2013-06-15 00:23:00,62.4,55.0,29.63,NW,315,0.0,0.0,77,0.00,,,0.00,WUHU216HW,2013-06-15 04:23:00,
2013-06-15 00:28:00,62.2,54.8,29.63,NNW,338,0.0,0.0,77,0.00,,,0.00,WUHU216HW,2013-06-15 04:28:00,
2013-06-15 00:33:00,62.4,55.4,29.63,ENE,68,0.0,0.0,78,0.00,,,0.00,WUHU216HW,2013-06-15 04:33:00,
2013-06-15 00:38:00,62.4,55.4,29.63,East,90,0.0,1.3,78,0.00,,,0.00,WUHU216HW,2013-06-15 04:38:00,
2013-06-15 00:43:00,62.4,55.4,29.63,NE,45,0.0,2.6,78,0.00,,,0.00,WUHU216HW,2013-06-15 04:43:00,
2013-06-15 00:48:00,62.4,55.0,29.63,ESE,113,0.0,2.6,77,0.00,,,0.00,WUHU216HW,2013-06-15 04:48:00,
2013-06-15 00:53:00,62.6,55.2,29.63,East,90,0.0,0.0,77,0.00,,,0.00,WUHU216HW,2013-06-15 04:53:00,
2013-06-15 00:58:00,62.7,55.4,29.62,East,90,0.0,0.0,77,0.00,,,0.00,WUHU216HW,2013-06-15 04:58:00,
2013-06-15 01:03:00,62.9,55.5,29.62,East,90,0.0,0.0,77,0.00,,,0.00,WUHU216HW,2013-06-15 05:03:00,
2013-06-15 01:08:00,62.9,55.5,29.63,East,90,0.0,0.0,77,0.00,,,0.00,WUHU216HW,2013-06-15 05:08:00,
2013-06-15 01:13:00,62.7,55.4,29.63,East,90,0.0,0.0,77,0.00,,,0.00,WUHU216HW,2013-06-15 05:13:00,
2013-06-15 01:19:00,62.7,55.4,29.63,East,90,0.0,0.0,77,0.00,,,0.00,WUHU216HW,2013-06-15 05:19:00,
2013-06-15 01:24:00,62.6,55.2,29.64,East,90,0.0,0.0,77,0.00,,,0.00,WUHU216HW,2013-06-15 05:24:00,
2013-06-15 01:29:00,62.4,55.0,29.63,East,90,0.0,0.0,77,0.00,,,0.00,WUHU216HW,2013-06-15 05:29:00,
2013-06-15 01:34:00,62.2,55.2,29.63,East,90,0.0,0.0,78,0.00,,,0.00,WUHU216HW,2013-06-15 05:34:00,
2013-06-15 01:39:00,61.8,54.9,29.63,ENE,68,0.0,0.0,78,0.00,,,0.00,WUHU216HW,2013-06-15 05:39:00,
2013-06-15 01:44:00,61.7,55.1,29.63,ENE,68,0.0,0.0,79,0.00,,,0.00,WUHU216HW,2013-06-15 05:44:00,
2013-06-15 01:49:00,61.5,54.9,29.63,ENE,68,0.0,0.0,79,0.00,,,0.00,WUHU216HW,2013-06-15 05:49:00,
2013-06-15 01:54:00,61.3,54.8,29.63,ENE,68,0.0,0.0,79,0.00,,,0.00,WUHU216HW,2013-06-15 05:54:00,
2013-06-15 01:59:00,61.3,55.1,29.63,ENE,68,0.0,0.0,80,0.00,,,0.00,WUHU216HW,2013-06-15 05:59:00,
2013-06-15 02:04:00,61.3,55.1,29.63,ENE,68,0.0,0.0,80,0.00,,,0.00,WUHU216HW,2013-06-15 06:04:00,
2013-06-15 02:09:00,61.3,55.1,29.63,ENE,68,0.0,0.0,80,0.00,,,0.00,WUHU216HW,2013-06-15 06:09:00,
2013-06-15 02:14:00,61.1,55.3,29.63,ENE,68,0.0,0.0,81,0.00,,,0.00,WUHU216HW,2013-06-15 06:14:00,
2013-06-15 02:19:00,61.1,55.0,29.63,ENE,68,0.0,0.0,80,0.00,,,0.00,WUHU216HW,2013-06-15 06:19:00,
2013-06-15 02:24:00,60.9,55.1,29.63,ENE,68,0.0,0.0,81,0.00,,,0.00,WUHU216HW,2013-06-15 06:24:00,
2013-06-15 02:29:00,60.9,55.1,29.63,ENE,68,0.0,0.0,81,0.00,,,0.00,WUHU216HW,2013-06-15 06:29:00,
2013-06-15 02:34:00,60.6,54.8,29.63,ENE,68,0.0,0.0,81,0.00,,,0.00,WUHU216HW,2013-06-15 06:34:00,
2013-06-15 02:39:00,60.6,54.8,29.63,ENE,68,0.0,0.0,81,0.00,,,0.00,WUHU216HW,2013-06-15 06:39:00,
2013-06-15 02:44:00,60.6,54.6,29.63,ENE,68,0.0,0.0,81,0.00,,,0.00,WUHU216HW,2013-06-15 06:44:00,
2013-06-15 02:49:00,60.4,54.9,29.62,ENE,68,0.0,0.0,82,0.00,,,0.00,WUHU216HW,2013-06-15 06:49:00,
2013-06-15 02:54:00,60.4,54.9,29.63,ENE,68,0.0,0.0,82,0.00,,,0.00,WUHU216HW,2013-06-15 06:54:00,
2013-06-15 02:59:00,60.2,54.7,29.63,NE,45,0.0,0.0,82,0.00,,,0.00,WUHU216HW,2013-06-15 06:59:00,
2013-06-15 03:04:00,60.2,54.7,29.63,NE,45,0.0,0.0,82,0.00,,,0.00,WUHU216HW,2013-06-15 07:04:00,
2013-06-15 03:09:00,60.0,54.6,29.63,NE,45,0.0,0.0,82,0.00,,,0.00,WUHU216HW,2013-06-15 07:09:00,
2013-06-15 03:14:00,60.0,54.6,29.63,NE,45,0.0,0.0,82,0.00,,,0.00,WUHU216HW,2013-06-15 07:14:00,
2013-06-15 03:19:00,59.9,54.7,29.63,NE,45,0.0,0.0,83,0.00,,,0.00,WUHU216HW,2013-06-15 07:19:00,
2013-06-15 03:24:00,59.7,54.5,29.63,NE,45,0.0,0.0,83,0.00,,,0.00,WUHU216HW,2013-06-15 07:24:00,
2013-06-15 03:30:00,59.5,54.3,29.63,NE,45,0.0,0.0,83,0.00,,,0.00,WUHU216HW,2013-06-15 07:30:00,
2013-06-15 03:35:00,59.5,54.3,29.62,NE,45,0.0,0.0,83,0.00,,,0.00,WUHU216HW,2013-06-15 07:35:00,
2013-06-15 03:40:00,59.1,54.3,29.63,NE,45,0.0,0.0,84,0.00,,,0.00,WUHU216HW,2013-06-15 07:40:00,
2013-06-15 03:45:00,59.1,54.0,29.63,NE,45,0.0,0.0,83,0.00,,,0.00,WUHU216HW,2013-06-15 07:45:00,
2013-06-15 03:50:00,58.8,53.6,29.63,NE,45,0.0,0.0,83,0.00,,,0.00,WUHU216HW,2013-06-15 07:50:00,
2013-06-15 03:55:00,58.8,53.9,29.62,NE,45,0.0,0.0,84,0.00,,,0.00,WUHU216HW,2013-06-15 07:55:00,
2013-06-15 04:00:00,58.8,53.9,29.62,NE,45,0.0,0.0,84,0.00,,,0.00,WUHU216HW,2013-06-15 08:00:00,
2013-06-15 04:05:00,58.8,54.3,29.62,NE,45,0.0,0.0,85,0.00,,,0.00,WUHU216HW,2013-06-15 08:05:00,
2013-06-15 04:10:00,58.8,53.9,29.62,NE,45,0.0,0.0,84,0.00,,,0.00,WUHU216HW,2013-06-15 08:10:00,
2013-06-15 04:15:00,58.8,54.3,29.62,NE,45,0.0,0.0,85,0.00,,,0.00,WUHU216HW,2013-06-15 08:15:00,
2013-06-15 04:20:00,58.8,54.3,29.62,NE,45,0.0,0.0,85,0.00,,,0.00,WUHU216HW,2013-06-15 08:20:00,
2013-06-15 04:25:00,58.8,54.3,29.62,NE,45,0.0,0.0,85,0.00,,,0.00,WUHU216HW,2013-06-15 08:25:00,
2013-06-15 04:30:00,58.8,54.3,29.62,NE,45,0.0,0.0,85,0.00,,,0.00,WUHU216HW,2013-06-15 08:30:00,
2013-06-15 04:35:00,58.6,54.1,29.61,NE,45,0.0,0.0,85,0.00,,,0.00,WUHU216HW,2013-06-15 08:35:00,
2013-06-15 04:40:00,58.4,53.9,29.61,NE,45,0.0,0.0,85,0.00,,,0.00,WUHU216HW,2013-06-15 08:40:00,
2013-06-15 04:45:00,58.2,53.7,29.62,NE,45,0.0,0.0,85,0.00,,,0.00,WUHU216HW,2013-06-15 08:45:00,
2013-06-15 04:50:00,58.2,53.7,29.62,NE,45,0.0,0.0,85,0.00,,,0.00,WUHU216HW,2013-06-15 08:50:00,
2013-06-15 04:55:00,58.1,53.9,29.63,NE,45,0.0,0.0,86,0.00,,,0.00,WUHU216HW,2013-06-15 08:55:00,
2013-06-15 05:00:00,57.9,53.7,29.63,NE,45,0.0,0.0,86,0.00,,,0.00,WUHU216HW,2013-06-15 09:00:00,
2013-06-15 05:05:00,57.9,53.7,29.63,NE,45,0.0,0.0,86,0.00,,,0.00,WUHU216HW,2013-06-15 09:05:00,
2013-06-15 05:10:00,57.9,53.7,29.64,NE,45,0.0,0.0,86,0.00,,,0.00,WUHU216HW,2013-06-15 09:10:00,
2013-06-15 05:15:00,57.7,53.5,29.65,NE,45,0.0,0.0,86,0.00,,,0.00,WUHU216HW,2013-06-15 09:15:00,
2013-06-15 05:20:00,57.5,53.3,29.65,NE,45,0.0,0.0,86,0.00,,,0.00,WUHU216HW,2013-06-15 09:20:00,
2013-06-15 05:25:00,57.5,53.3,29.64,NE,45,0.0,0.0,86,0.00,,,0.00,WUHU216HW,2013-06-15 09:25:00,
2013-06-15 05:30:00,57.3,53.2,29.64,NE,45,0.0,0.0,86,0.00,,,0.00,WUHU216HW,2013-06-15 09:30:00,
2013-06-15 05:35:00,57.3,53.2,29.65,NE,45,0.0,0.0,86,0.00,,,0.00,WUHU216HW,2013-06-15 09:35:00,
2013-06-15 05:40:00,57.2,53.5,29.66,NE,45,0.0,0.0,87,0.00,,,0.00,WUHU216HW,2013-06-15 09:40:00,
2013-06-15 05:45:00,57.2,53.3,29.66,NE,45,0.0,0.0,87,0.00,,,0.00,WUHU216HW,2013-06-15 09:45:00,
2013-06-15 05:50:00,57.2,53.3,29.66,NE,45,0.0,0.0,87,0.00,,,0.00,WUHU216HW,2013-06-15 09:50:00,
2013-06-15 05:55:00,57.2,53.3,29.67,NE,45,0.0,0.0,87,0.00,,,0.00,WUHU216HW,2013-06-15 09:55:00,
2013-06-15 06:00:00,57.2,53.3,29.67,NE,45,0.0,0.0,87,0.00,,,0.00,WUHU216HW,2013-06-15 10:00:00,
2013-06-15 06:05:00,57.0,53.6,29.67,NE,45,0.0,0.0,88,0.00,,,0.00,WUHU216HW,2013-06-15 10:05:00,
2013-06-15 06:10:00,57.3,53.8,29.67,NE,45,0.0,0.0,88,0.00,,,0.00,WUHU216HW,2013-06-15 10:10:00,
2013-06-15 06:15:00,57.2,53.6,29.67,NE,45,0.0,0.0,88,0.00,,,0.00,WUHU216HW,2013-06-15 10:15:00,
2013-06-15 06:20:00,57.3,53.8,29.67,NE,45,0.0,0.0,88,0.00,,,0.00,WUHU216HW,2013-06-15 10:20:00,
2013-06-15 06:25:00,57.5,54.0,29.67,NE,45,0.0,0.0,88,0.00,,,0.00,WUHU216HW,2013-06-15 10:25:00,
2013-06-15 06:30:00,57.7,54.2,29.67,NE,45,0.0,0.0,88,0.00,,,0.00,WUHU216HW,2013-06-15 10:30:00,
2013-06-15 06:35:00,57.9,54.3,29.68,NE,45,0.0,0.0,88,0.00,,,0.00,WUHU216HW,2013-06-15 10:35:00,
2013-06-15 06:40:00,58.1,54.5,29.68,NE,45,0.0,0.0,88,0.00,,,0.00,WUHU216HW,2013-06-15 10:40:00,
2013-06-15 06:45:00,58.4,54.9,29.68,NE,45,0.0,0.0,88,0.00,,,0.00,WUHU216HW,2013-06-15 10:45:00,
2013-06-15 06:50:00,58.6,55.1,29.68,NE,45,0.0,0.0,88,0.00,,,0.00,WUHU216HW,2013-06-15 10:50:00,
2013-06-15 06:55:00,58.8,55.2,29.68,NE,45,0.0,0.0,88,0.00,,,0.00,WUHU216HW,2013-06-15 10:55:00,
2013-06-15 07:00:00,58.8,55.2,29.68,NE,45,0.0,0.0,88,0.00,,,0.00,WUHU216HW,2013-06-15 11:00:00,
2013-06-15 07:05:00,59.5,56.0,29.67,NE,45,0.0,0.0,88,0.00,,,0.00,WUHU216HW,2013-06-15 11:05:00,
2013-06-15 07:10:00,59.7,56.1,29.68,NE,45,0.0,0.0,88,0.00,,,0.00,WUHU216HW,2013-06-15 11:10:00,
2013-06-15 07:15:00,60.0,56.2,29.68,NE,45,0.0,0.0,87,0.00,,,0.00,WUHU216HW,2013-06-15 11:15:00,
2013-06-15 07:20:00,60.6,57.0,29.69,NE,45,0.0,0.0,88,0.00,,,0.00,WUHU216HW,2013-06-15 11:20:00,
2013-06-15 07:25:00,61.1,57.6,29.69,NE,45,0.0,0.0,88,0.00,,,0.00,WUHU216HW,2013-06-15 11:25:00,
2013-06-15 07:30:00,61.5,57.6,29.69,NE,45,0.0,0.0,87,0.00,,,0.00,WUHU216HW,2013-06-15 11:30:00,
2013-06-15 07:35:00,62.0,58.1,29.70,NE,45,0.0,0.0,87,0.00,,,0.00,WUHU216HW,2013-06-15 11:35:00,
2013-06-15 07:40:00,62.4,58.1,29.69,NE,45,0.0,0.0,86,0.00,,,0.00,WUHU216HW,2013-06-15 11:40:00,
2013-06-15 07:45:00,62.7,58.5,29.69,NE,45,0.0,0.0,86,0.00,,,0.00,WUHU216HW,2013-06-15 11:45:00,
2013-06-15 07:50:00,63.1,58.5,29.70,NE,45,0.0,0.0,85,0.00,,,0.00,WUHU216HW,2013-06-15 11:50:00,
2013-06-15 07:55:00,63.5,58.9,29.70,NE,45,0.0,0.0,85,0.00,,,0.00,WUHU216HW,2013-06-15 11:55:00,
2013-06-15 08:00:00,64.0,59.1,29.70,NE,45,0.0,0.0,84,0.00,,,0.00,WUHU216HW,2013-06-15 12:00:00,
2013-06-15 08:05:00,64.2,58.7,29.70,NE,45,0.0,0.0,83,0.00,,,0.00,WUHU216HW,2013-06-15 12:05:00,
2013-06-15 08:11:00,64.5,59.2,29.70,NE,45,0.0,0.0,83,0.00,,,0.00,WUHU216HW,2013-06-15 12:11:00,
2013-06-15 08:16:00,64.9,59.3,29.70,NE,45,0.0,0.0,82,0.00,,,0.00,WUHU216HW,2013-06-15 12:16:00,
2013-06-15 08:21:00,65.1,59.4,29.70,NE,45,0.0,0.0,81,0.00,,,0.00,WUHU216HW,2013-06-15 12:21:00,
2013-06-15 08:26:00,65.4,59.5,29.71,NE,45,0.0,0.0,81,0.00,,,0.00,WUHU216HW,2013-06-15 12:26:00,
2013-06-15 08:31:00,65.8,59.5,29.71,WSW,248,0.0,1.5,80,0.00,,,0.00,WUHU216HW,2013-06-15 12:31:00,
2013-06-15 08:36:00,66.0,59.3,29.71,SW,225,0.0,1.5,79,0.00,,,0.00,WUHU216HW,2013-06-15 12:36:00,
2013-06-15 08:41:00,66.2,59.1,29.71,WSW,248,0.0,0.0,78,0.00,,,0.00,WUHU216HW,2013-06-15 12:41:00,
2013-06-15 08:46:00,66.5,59.5,29.71,WSW,248,0.0,0.0,78,0.00,,,0.00,WUHU216HW,2013-06-15 12:46:00,
2013-06-15 08:51:00,66.9,59.4,29.71,SW,225,0.0,0.0,77,0.00,,,0.00,WUHU216HW,2013-06-15 12:51:00,
2013-06-15 08:56:00,67.8,60.0,29.71,SW,225,0.0,0.0,76,0.00,,,0.00,WUHU216HW,2013-06-15 12:56:00,
2013-06-15 09:01:00,69.4,61.1,29.71,South,180,0.0,0.0,75,0.00,,,0.00,WUHU216HW,2013-06-15 13:01:00,
2013-06-15 09:06:00,71.4,61.9,29.72,SSW,203,0.0,0.0,72,0.00,,,0.00,WUHU216HW,2013-06-15 13:06:00,
2013-06-15 09:11:00,73.0,62.1,29.72,SW,225,0.0,0.0,69,0.00,,,0.00,WUHU216HW,2013-06-15 13:11:00,
2013-06-15 09:16:00,73.9,62.2,29.71,WSW,248,0.0,0.0,67,0.00,,,0.00,WUHU216HW,2013-06-15 13:16:00,
2013-06-15 09:21:00,74.3,62.1,29.71,South,180,0.0,0.0,66,0.00,,,0.00,WUHU216HW,2013-06-15 13:21:00,
2013-06-15 09:26:00,75.3,62.7,29.71,SW,225,0.0,0.0,65,0.00,,,0.00,WUHU216HW,2013-06-15 13:26:00,
2013-06-15 09:31:00,75.9,62.4,29.72,WSW,248,0.0,5.8,63,0.00,,,0.00,WUHU216HW,2013-06-15 13:31:00,
2013-06-15 09:36:00,76.4,62.0,29.72,South,180,0.0,5.8,61,0.00,,,0.00,WUHU216HW,2013-06-15 13:36:00,
2013-06-15 09:41:00,76.8,62.7,29.72,NW,315,0.0,2.0,61,0.00,,,0.00,WUHU216HW,2013-06-15 13:41:00,
2013-06-15 09:46:00,77.3,63.3,29.72,WSW,248,0.0,2.0,62,0.00,,,0.00,WUHU216HW,2013-06-15 13:46:00,
2013-06-15 09:51:00,77.9,62.9,29.72,West,270,0.0,1.5,60,0.00,,,0.00,WUHU216HW,2013-06-15 13:51:00,
2013-06-15 09:56:00,78.4,62.9,29.72,WNW,293,0.0,1.5,59,0.00,,,0.00,WUHU216HW,2013-06-15 13:56:00,
2013-06-15 10:01:00,78.6,63.6,29.72,WSW,248,0.0,0.0,60,0.00,,,0.00,WUHU216HW,2013-06-15 14:01:00,
2013-06-15 10:06:00,79.1,63.6,29.71,SW,225,5.8,5.8,59,0.00,,,0.00,WUHU216HW,2013-06-15 14:06:00,
2013-06-15 10:11:00,79.3,63.3,29.71,WNW,293,0.0,5.8,58,0.00,,,0.00,WUHU216HW,2013-06-15 14:11:00,
2013-06-15 10:17:00,79.5,63.4,29.71,WNW,293,0.0,0.0,58,0.00,,,0.00,WUHU216HW,2013-06-15 14:17:00,
2013-06-15 10:22:00,80.4,64.2,29.70,WSW,248,2.9,2.9,58,0.00,,,0.00,WUHU216HW,2013-06-15 14:22:00,
2013-06-15 10:27:00,80.7,63.5,29.70,West,270,0.0,2.9,56,0.00,,,0.00,WUHU216HW,2013-06-15 14:27:00,
2013-06-15 10:32:00,80.9,63.7,29.70,NW,315,0.0,2.4,56,0.00,,,0.00,WUHU216HW,2013-06-15 14:32:00,
2013-06-15 10:37:00,81.1,63.3,29.70,WSW,248,3.8,3.8,55,0.00,,,0.00,WUHU216HW,2013-06-15 14:37:00,
2013-06-15 10:42:00,81.3,63.5,29.70,NNW,338,0.0,3.8,55,0.00,,,0.00,WUHU216HW,2013-06-15 14:42:00,
2013-06-15 10:47:00,82.0,65.2,29.70,SSW,203,0.0,0.0,56,0.00,,,0.00,WUHU216HW,2013-06-15 14:47:00,
2013-06-15 10:52:00,82.7,65.1,29.70,WSW,248,0.0,2.9,56,0.00,,,0.00,WUHU216HW,2013-06-15 14:52:00,
2013-06-15 10:57:00,82.4,62.9,29.70,WSW,248,0.0,2.9,52,0.00,,,0.00,WUHU216HW,2013-06-15 14:57:00,
2013-06-15 11:02:00,82.0,63.1,29.70,WNW,293,0.8,2.6,53,0.00,,,0.00,WUHU216HW,2013-06-15 15:02:00,
2013-06-15 11:07:00,81.6,61.7,29.70,SW,225,0.8,7.6,51,0.00,,,0.00,WUHU216HW,2013-06-15 15:07:00,
2013-06-15 11:12:00,81.6,62.7,29.70,NW,315,0.0,7.6,53,0.00,,,0.00,WUHU216HW,2013-06-15 15:12:00,
2013-06-15 11:17:00,82.0,63.1,29.70,WSW,248,0.0,4.4,53,0.00,,,0.00,WUHU216HW,2013-06-15 15:17:00,
2013-06-15 11:22:00,82.5,62.5,29.70,NW,315,0.0,4.2,51,0.00,,,0.00,WUHU216HW,2013-06-15 15:22:00,
2013-06-15 11:27:00,82.7,62.7,29.70,WNW,293,0.0,4.9,51,0.00,,,0.00,WUHU216HW,2013-06-15 15:27:00,
2013-06-15 11:33:00,83.1,63.1,29.69,NW,315,0.0,4.9,51,0.00,,,0.00,WUHU216HW,2013-06-15 15:33:00,
2013-06-15 11:38:00,83.1,61.9,29.69,NW,315,0.0,2.4,49,0.00,,,0.00,WUHU216HW,2013-06-15 15:38:00,
2013-06-15 11:43:00,82.7,60.9,29.69,NNW,338,0.0,0.0,48,0.00,,,0.00,WUHU216HW,2013-06-15 15:43:00,
2013-06-15 11:48:00,82.0,61.5,29.69,NW,315,4.6,4.6,50,0.00,,,0.00,WUHU216HW,2013-06-15 15:48:00,
2013-06-15 11:53:00,81.6,61.7,29.69,WNW,293,0.0,4.6,51,0.00,,,0.00,WUHU216HW,2013-06-15 15:53:00,
2013-06-15 11:58:00,82.2,62.7,29.70,NE,45,0.0,0.0,52,0.00,,,0.00,WUHU216HW,2013-06-15 15:58:00,
2013-06-15 12:03:00,82.2,61.7,29.70,West,270,0.0,2.0,50,0.00,,,0.00,WUHU216HW,2013-06-15 16:03:00,
2013-06-15 12:08:00,82.7,61.4,29.69,NNW,338,0.0,2.0,49,0.00,,,0.00,WUHU216HW,2013-06-15 16:08:00,
2013-06-15 12:13:00,83.3,62.1,29.69,SSW,203,4.9,4.9,50,0.00,,,0.00,WUHU216HW,2013-06-15 16:13:00,
2013-06-15 12:18:00,83.8,62.0,29.69,West,270,0.0,8.7,48,0.00,,,0.00,WUHU216HW,2013-06-15 16:18:00,
2013-06-15 12:23:00,84.0,61.6,29.69,West,270,4.0,9.8,47,0.00,,,0.00,WUHU216HW,2013-06-15 16:23:00,
2013-06-15 12:28:00,84.3,61.3,29.69,SSW,203,0.0,9.8,46,0.00,,,0.00,WUHU216HW,2013-06-15 16:28:00,
2013-06-15 12:33:00,84.7,63.5,29.69,NW,315,0.0,0.0,49,0.00,,,0.00,WUHU216HW,2013-06-15 16:33:00,
2013-06-15 12:38:00,84.3,59.5,29.69,NNW,338,0.0,3.5,43,0.00,,,0.00,WUHU216HW,2013-06-15 16:38:00,
2013-06-15 12:43:00,83.3,59.6,29.69,NW,315,0.0,3.5,45,0.00,,,0.00,WUHU216HW,2013-06-15 16:43:00,
2013-06-15 12:48:00,83.3,61.5,29.68,West,270,0.0,3.5,48,0.00,,,0.00,WUHU216HW,2013-06-15 16:48:00,
2013-06-15 12:53:00,83.4,60.4,29.69,WSW,248,0.0,6.2,46,0.00,,,0.00,WUHU216HW,2013-06-15 16:53:00,
2013-06-15 12:58:00,83.8,62.0,29.68,WNW,293,0.0,6.2,48,0.00,,,0.00,WUHU216HW,2013-06-15 16:58:00,
2013-06-15 13:03:00,83.8,60.8,29.68,NNW,338,0.0,4.9,46,0.00,,,0.00,WUHU216HW,2013-06-15 17:03:00,
2013-06-15 13:08:00,84.0,60.9,29.68,WNW,293,0.0,4.9,46,0.00,,,0.00,WUHU216HW,2013-06-15 17:08:00,
2013-06-15 13:13:00,84.3,61.9,29.67,SW,225,0.0,1.7,47,0.00,,,0.00,WUHU216HW,2013-06-15 17:13:00,
2013-06-15 13:18:00,84.0,60.3,29.67,SSE,158,0.0,2.6,45,0.00,,,0.00,WUHU216HW,2013-06-15 17:18:00,
2013-06-15 13:23:00,83.4,59.8,29.67,WSW,248,0.0,6.4,45,0.00,,,0.00,WUHU216HW,2013-06-15 17:23:00,
2013-06-15 13:29:00,82.7,60.9,29.67,SSW,203,3.3,6.7,48,0.00,,,0.00,WUHU216HW,2013-06-15 17:29:00,
2013-06-15 13:34:00,83.3,61.5,29.67,WNW,293,0.0,6.7,48,0.00,,,0.00,WUHU216HW,2013-06-15 17:34:00,
2013-06-15 13:39:00,83.4,59.8,29.67,NNW,338,0.0,2.9,45,0.00,,,0.00,WUHU216HW,2013-06-15 17:39:00,
2013-06-15 13:44:00,83.1,59.5,29.67,SW,225,0.0,7.1,45,0.00,,,0.00,WUHU216HW,2013-06-15 17:44:00,
2013-06-15 13:49:00,82.9,60.5,29.66,WNW,293,0.0,7.1,47,0.00,,,0.00,WUHU216HW,2013-06-15 17:49:00,
2013-06-15 13:54:00,83.4,61.0,29.66,West,270,0.0,1.5,47,0.00,,,0.00,WUHU216HW,2013-06-15 17:54:00,
2013-06-15 13:59:00,84.3,61.7,29.66,West,270,0.0,0.0,47,0.00,,,0.00,WUHU216HW,2013-06-15 17:59:00,
2013-06-15 14:04:00,84.7,61.0,29.66,WSW,248,3.1,3.1,45,0.00,,,0.00,WUHU216HW,2013-06-15 18:04:00,
2013-06-15 14:09:00,85.2,61.5,29.66,West,270,0.0,3.1,45,0.00,,,0.00,WUHU216HW,2013-06-15 18:09:00,
2013-06-15 14:14:00,85.6,60.5,29.66,NW,315,0.0,2.9,43,0.00,,,0.00,WUHU216HW,2013-06-15 18:14:00,
2013-06-15 14:19:00,85.8,61.3,29.65,WSW,248,6.0,7.3,44,0.00,,,0.00,WUHU216HW,2013-06-15 18:19:00,
2013-06-15 14:24:00,85.8,61.9,29.65,NW,315,0.0,7.3,45,0.00,,,0.00,WUHU216HW,2013-06-15 18:24:00,
2013-06-15 14:29:00,86.1,61.0,29.65,NNW,338,0.0,3.1,43,0.00,,,0.00,WUHU216HW,2013-06-15 18:29:00,
2013-06-15 14:34:00,86.3,59.9,29.65,NW,315,0.0,2.0,41,0.00,,,0.00,WUHU216HW,2013-06-15 18:34:00,
2013-06-15 14:39:00,86.5,60.1,29.64,South,180,3.5,4.6,41,0.00,,,0.00,WUHU216HW,2013-06-15 18:39:00,
2013-06-15 14:44:00,86.7,60.9,29.65,WNW,293,0.0,4.6,42,0.00,,,0.00,WUHU216HW,2013-06-15 18:44:00,
2013-06-15 14:49:00,86.7,60.2,29.65,NNW,338,1.3,10.5,41,0.00,,,0.00,WUHU216HW,2013-06-15 18:49:00,
2013-06-15 14:54:00,87.0,59.9,29.65,WSW,248,0.0,10.5,40,0.00,,,0.00,WUHU216HW,2013-06-15 18:54:00,
2013-06-15 14:59:00,87.0,59.1,29.65,NW,315,0.0,3.8,39,0.00,,,0.00,WUHU216HW,2013-06-15 18:59:00,
2013-06-15 15:04:00,87.0,59.1,29.65,WSW,248,4.2,4.2,39,0.00,,,0.00,WUHU216HW,2013-06-15 19:04:00,
2013-06-15 15:09:00,87.0,56.7,29.65,NW,315,3.8,8.2,36,0.00,,,0.00,WUHU216HW,2013-06-15 19:09:00,
2013-06-15 15:14:00,87.0,58.3,29.65,West,270,0.0,8.2,38,0.00,,,0.00,WUHU216HW,2013-06-15 19:14:00,
2013-06-15 15:19:00,87.4,58.6,29.64,SSW,203,4.9,4.9,38,0.00,,,0.00,WUHU216HW,2013-06-15 19:19:00,
2013-06-15 15:24:00,87.4,57.0,29.64,SSW,203,2.4,10.5,36,0.00,,,0.00,WUHU216HW,2013-06-15 19:24:00,
2013-06-15 15:29:00,86.9,56.6,29.64,WSW,248,0.0,10.5,36,0.00,,,0.00,WUHU216HW,2013-06-15 19:29:00,
2013-06-15 15:35:00,86.7,58.0,29.65,WSW,248,0.0,3.3,38,0.00,,,0.00,WUHU216HW,2013-06-15 19:35:00,
2013-06-15 15:40:00,87.0,59.1,29.65,NW,315,0.0,1.3,39,0.00,,,0.00,WUHU216HW,2013-06-15 19:40:00,
2013-06-15 15:45:00,87.8,59.8,29.65,WNW,293,0.0,0.0,39,0.00,,,0.00,WUHU216HW,2013-06-15 19:45:00,
2013-06-15 15:50:00,88.1,59.2,29.65,NNW,338,0.0,0.0,38,0.00,,,0.00,WUHU216HW,2013-06-15 19:50:00,
2013-06-15 15:55:00,88.1,59.2,29.65,NW,315,0.0,0.0,38,0.00,,,0.00,WUHU216HW,2013-06-15 19:55:00,
2013-06-15 16:00:00,87.8,58.0,29.64,SW,225,0.0,0.0,37,0.00,,,0.00,WUHU216HW,2013-06-15 20:00:00,
2013-06-15 16:05:00,87.0,57.5,29.64,SW,225,0.0,1.1,37,0.00,,,0.00,WUHU216HW,2013-06-15 20:05:00,
2013-06-15 16:10:00,86.5,57.8,29.65,WSW,248,0.0,1.1,38,0.00,,,0.00,WUHU216HW,2013-06-15 20:10:00,
2013-06-15 16:15:00,86.1,55.9,29.64,WSW,248,0.0,2.4,36,0.00,,,0.00,WUHU216HW,2013-06-15 20:15:00,
2013-06-15 16:20:00,85.8,57.2,29.64,SW,225,4.2,4.2,38,0.00,,,0.00,WUHU216HW,2013-06-15 20:20:00,
2013-06-15 16:25:00,86.1,57.5,29.64,SW,225,0.0,4.2,38,0.00,,,0.00,WUHU216HW,2013-06-15 20:25:00,
2013-06-15 16:30:00,86.5,56.2,29.64,NW,315,0.0,0.0,36,0.00,,,0.00,WUHU216HW,2013-06-15 20:30:00,
2013-06-15 16:35:00,85.8,54.0,29.63,North,0,0.0,0.0,34,0.00,,,0.00,WUHU216HW,2013-06-15 20:35:00,
2013-06-15 16:40:00,84.5,55.3,29.64,NNW,338,0.0,0.0,37,0.00,,,0.00,WUHU216HW,2013-06-15 20:40:00,
2013-06-15 16:45:00,84.9,55.6,29.64,West,270,0.0,0.0,37,0.00,,,0.00,WUHU216HW,2013-06-15 20:45:00,
2013-06-15 16:50:00,85.6,56.3,29.64,SW,225,0.0,0.0,37,0.00,,,0.00,WUHU216HW,2013-06-15 20:50:00,
2013-06-15 16:55:00,85.8,56.4,29.63,WSW,248,0.0,0.0,37,0.00,,,0.00,WUHU216HW,2013-06-15 20:55:00,
2013-06-15 17:00:00,85.8,55.6,29.63,SSW,203,0.0,5.3,36,0.00,,,0.00,WUHU216HW,2013-06-15 21:00:00,
2013-06-15 17:05:00,86.0,56.6,29.63,WSW,248,0.0,5.3,37,0.00,,,0.00,WUHU216HW,2013-06-15 21:05:00,
2013-06-15 17:10:00,86.1,57.5,29.63,WSW,248,0.0,0.0,38,0.00,,,0.00,WUHU216HW,2013-06-15 21:10:00,
2013-06-15 17:16:00,86.1,57.5,29.63,West,270,0.0,0.0,38,0.00,,,0.00,WUHU216HW,2013-06-15 21:16:00,
2013-06-15 17:21:00,86.1,56.7,29.63,WSW,248,5.1,5.1,37,0.00,,,0.00,WUHU216HW,2013-06-15 21:21:00,
2013-06-15 17:26:00,86.3,56.1,29.63,WSW,248,0.0,5.1,36,0.00,,,0.00,WUHU216HW,2013-06-15 21:26:00,
2013-06-15 17:31:00,86.5,56.2,29.63,WNW,293,0.0,0.0,36,0.00,,,0.00,WUHU216HW,2013-06-15 21:31:00,
2013-06-15 17:36:00,86.5,55.4,29.63,SSW,203,0.0,2.6,35,0.00,,,0.00,WUHU216HW,2013-06-15 21:36:00,
2013-06-15 17:41:00,86.5,54.6,29.63,WSW,248,0.0,2.6,34,0.00,,,0.00,WUHU216HW,2013-06-15 21:41:00,
2013-06-15 17:46:00,86.3,55.4,29.63,West,270,0.0,0.0,35,0.00,,,0.00,WUHU216HW,2013-06-15 21:46:00,
2013-06-15 17:51:00,86.5,55.4,29.63,WSW,248,0.0,3.3,34,0.00,,,0.00,WUHU216HW,2013-06-15 21:51:00,
2013-06-15 17:56:00,86.3,54.5,29.63,SSW,203,0.0,3.3,34,0.00,,,0.00,WUHU216HW,2013-06-15 21:56:00,
2013-06-15 18:01:00,86.1,55.1,29.63,NW,315,0.0,3.3,35,0.00,,,0.00,WUHU216HW,2013-06-15 22:01:00,
2013-06-15 18:06:00,85.8,54.8,29.63,WNW,293,0.0,0.0,35,0.00,,,0.00,WUHU216HW,2013-06-15 22:06:00,
2013-06-15 18:11:00,85.8,54.8,29.63,WSW,248,0.0,0.0,35,0.00,,,0.00,WUHU216HW,2013-06-15 22:11:00,
2013-06-15 18:16:00,85.8,54.8,29.62,SW,225,0.0,0.0,35,0.00,,,0.00,WUHU216HW,2013-06-15 22:16:00,
2013-06-15 18:21:00,85.6,54.7,29.63,West,270,0.0,0.0,35,0.00,,,0.00,WUHU216HW,2013-06-15 22:21:00,
2013-06-15 18:26:00,85.6,54.7,29.62,WSW,248,0.0,0.0,35,0.00,,,0.00,WUHU216HW,2013-06-15 22:26:00,
2013-06-15 18:32:00,85.6,55.5,29.63,WSW,248,0.0,0.0,36,0.00,,,0.00,WUHU216HW,2013-06-15 22:32:00,
2013-06-15 18:37:00,85.2,53.6,29.63,WSW,248,0.0,0.0,34,0.00,,,0.00,WUHU216HW,2013-06-15 22:37:00,
2013-06-15 18:42:00,84.7,53.1,29.63,SW,225,0.0,5.5,34,0.00,,,0.00,WUHU216HW,2013-06-15 22:42:00,
2013-06-15 18:47:00,84.2,53.2,29.62,WSW,248,0.0,5.5,35,0.00,,,0.00,WUHU216HW,2013-06-15 22:47:00,
2013-06-15 18:52:00,83.4,53.5,29.63,WSW,248,0.0,2.0,36,0.00,,,0.00,WUHU216HW,2013-06-15 22:52:00,
2013-06-15 18:57:00,82.7,52.9,29.63,WSW,248,2.6,2.6,36,0.00,,,0.00,WUHU216HW,2013-06-15 22:57:00,
2013-06-15 19:02:00,82.2,52.4,29.63,WSW,248,0.0,2.6,36,0.00,,,0.00,WUHU216HW,2013-06-15 23:02:00,
2013-06-15 19:07:00,81.6,52.7,29.63,WSW,248,0.0,0.0,37,0.00,,,0.00,WUHU216HW,2013-06-15 23:07:00,
2013-06-15 19:12:00,81.1,53.0,29.63,WSW,248,0.0,0.0,38,0.00,,,0.00,WUHU216HW,2013-06-15 23:12:00,
2013-06-15 19:17:00,80.4,52.4,29.63,WSW,248,0.0,0.0,38,0.00,,,0.00,WUHU216HW,2013-06-15 23:17:00,
2013-06-15 19:22:00,80.2,53.0,29.64,WSW,248,0.0,0.0,39,0.00,,,0.00,WUHU216HW,2013-06-15 23:22:00,
2013-06-15 19:27:00,79.8,52.7,29.64,WSW,248,0.0,0.0,39,0.00,,,0.00,WUHU216HW,2013-06-15 23:27:00,
2013-06-15 19:32:00,79.5,52.3,29.64,WSW,248,0.0,0.0,39,0.00,,,0.00,WUHU216HW,2013-06-15 23:32:00,
2013-06-15 19:37:00,79.3,53.0,29.64,WSW,248,0.0,0.0,40,0.00,,,0.00,WUHU216HW,2013-06-15 23:37:00,
2013-06-15 19:42:00,78.9,52.6,29.64,WSW,248,0.0,0.0,40,0.00,,,0.00,WUHU216HW,2013-06-15 23:42:00,
2013-06-15 19:47:00,78.8,53.1,29.64,WSW,248,0.0,0.0,41,0.00,,,0.00,WUHU216HW,2013-06-15 23:47:00,
2013-06-15 19:52:00,78.6,52.9,29.64,WSW,248,0.0,0.0,41,0.00,,,0.00,WUHU216HW,2013-06-15 23:52:00,
2013-06-15 19:58:00,78.4,53.4,29.64,WSW,248,0.0,0.0,42,0.00,,,0.00,WUHU216HW,2013-06-15 23:58:00,
2013-06-15 20:03:00,78.0,53.0,29.63,WSW,248,0.0,0.0,42,0.00,,,0.00,WUHU216HW,2013-06-16 00:03:00,
2013-06-15 20:08:00,77.7,53.3,29.64,WSW,248,0.0,0.0,43,0.00,,,0.00,WUHU216HW,2013-06-16 00:08:00,
2013-06-15 20:13:00,77.1,53.5,29.64,WSW,248,0.0,0.0,44,0.00,,,0.00,WUHU216HW,2013-06-16 00:13:00,
2013-06-15 20:18:00,76.8,54.4,29.63,WSW,248,0.0,0.0,46,0.00,,,0.00,WUHU216HW,2013-06-16 00:18:00,
2013-06-15 20:23:00,75.9,54.8,29.64,WSW,248,0.0,0.0,48,0.00,,,0.00,WUHU216HW,2013-06-16 00:23:00,
2013-06-15 20:28:00,75.2,55.4,29.64,WSW,248,0.0,0.0,50,0.00,,,0.00,WUHU216HW,2013-06-16 00:28:00,
2013-06-15 20:33:00,74.4,55.1,29.64,WSW,248,0.0,0.0,52,0.00,,,0.00,WUHU216HW,2013-06-16 00:33:00,
2013-06-15 20:38:00,73.7,55.4,29.64,WSW,248,0.0,0.0,53,0.00,,,0.00,WUHU216HW,2013-06-16 00:38:00,
2013-06-15 20:43:00,73.0,55.2,29.64,WSW,248,0.0,0.0,54,0.00,,,0.00,WUHU216HW,2013-06-16 00:43:00,
2013-06-15 20:48:00,72.3,54.9,29.64,WSW,248,0.0,0.0,55,0.00,,,0.00,WUHU216HW,2013-06-16 00:48:00,
2013-06-15 20:53:00,71.7,55.1,29.63,WSW,248,0.0,0.0,56,0.00,,,0.00,WUHU216HW,2013-06-16 00:53:00,
2013-06-15 20:58:00,71.2,54.6,29.64,WSW,248,0.0,0.0,56,0.00,,,0.00,WUHU216HW,2013-06-16 00:58:00,
2013-06-15 21:03:00,70.8,54.3,29.64,WSW,248,0.0,0.0,56,0.00,,,0.00,WUHU216HW,2013-06-16 01:03:00,
2013-06-15 21:08:00,70.3,54.3,29.64,WSW,248,0.0,0.0,57,0.00,,,0.00,WUHU216HW,2013-06-16 01:08:00,
2013-06-15 21:13:00,69.9,54.0,29.64,WSW,248,0.0,0.0,57,0.00,,,0.00,WUHU216HW,2013-06-16 01:13:00,
2013-06-15 21:18:00,69.6,53.7,29.64,WSW,248,0.0,0.0,57,0.00,,,0.00,WUHU216HW,2013-06-16 01:18:00,
2013-06-15 21:23:00,69.4,53.5,29.64,WSW,248,0.0,0.0,57,0.00,,,0.00,WUHU216HW,2013-06-16 01:23:00,
2013-06-15 21:28:00,69.0,53.6,29.64,WSW,248,0.0,0.0,58,0.00,,,0.00,WUHU216HW,2013-06-16 01:28:00,
2013-06-15 21:33:00,68.7,53.3,29.64,WSW,248,0.0,0.0,58,0.00,,,0.00,WUHU216HW,2013-06-16 01:33:00,
2013-06-15 21:38:00,68.3,52.9,29.64,WSW,248,0.0,0.0,58,0.00,,,0.00,WUHU216HW,2013-06-16 01:38:00,
2013-06-15 21:43:00,68.1,52.3,29.64,WSW,248,0.0,0.0,57,0.00,,,0.00,WUHU216HW,2013-06-16 01:43:00,
2013-06-15 21:48:00,68.1,52.3,29.64,WSW,248,0.0,0.0,57,0.00,,,0.00,WUHU216HW,2013-06-16 01:48:00,
2013-06-15 21:53:00,68.1,52.3,29.64,WSW,248,0.0,0.0,57,0.00,,,0.00,WUHU216HW,2013-06-16 01:53:00,
2013-06-15 21:58:00,68.1,52.3,29.65,WSW,248,0.0,0.0,57,0.00,,,0.00,WUHU216HW,2013-06-16 01:58:00,
2013-06-15 22:04:00,68.0,52.1,29.65,WSW,248,0.0,0.0,57,0.00,,,0.00,WUHU216HW,2013-06-16 02:04:00,
2013-06-15 22:09:00,67.8,52.9,29.65,WSW,248,0.0,0.0,59,0.00,,,0.00,WUHU216HW,2013-06-16 02:09:00,
2013-06-15 22:14:00,67.6,53.6,29.65,WSW,248,0.0,0.0,61,0.00,,,0.00,WUHU216HW,2013-06-16 02:14:00,
2013-06-15 22:19:00,67.2,53.3,29.65,WSW,248,0.0,0.0,61,0.00,,,0.00,WUHU216HW,2013-06-16 02:19:00,
2013-06-15 22:24:00,66.7,53.2,29.66,WSW,248,0.0,0.0,62,0.00,,,0.00,WUHU216HW,2013-06-16 02:24:00,
2013-06-15 22:29:00,66.5,53.1,29.65,WSW,248,0.0,0.0,62,0.00,,,0.00,WUHU216HW,2013-06-16 02:29:00,
2013-06-15 22:34:00,66.2,52.8,29.65,WSW,248,0.0,0.0,62,0.00,,,0.00,WUHU216HW,2013-06-16 02:34:00,
2013-06-15 22:39:00,66.0,52.2,29.65,WSW,248,0.0,0.0,61,0.00,,,0.00,WUHU216HW,2013-06-16 02:39:00,
2013-06-15 22:44:00,65.6,51.8,29.65,WSW,248,0.0,0.0,61,0.00,,,0.00,WUHU216HW,2013-06-16 02:44:00,
2013-06-15 22:49:00,65.4,51.6,29.65,WSW,248,0.0,0.0,61,0.00,,,0.00,WUHU216HW,2013-06-16 02:49:00,
2013-06-15 22:54:00,65.1,51.3,29.65,WSW,248,0.0,0.0,61,0.00,,,0.00,WUHU216HW,2013-06-16 02:54:00,
2013-06-15 22:59:00,64.9,51.1,29.65,WSW,248,0.0,0.0,61,0.00,,,0.00,WUHU216HW,2013-06-16 02:59:00,
2013-06-15 23:04:00,64.7,51.3,29.65,WSW,248,0.0,0.0,62,0.00,,,0.00,WUHU216HW,2013-06-16 03:04:00,
2013-06-15 23:09:00,64.2,51.0,29.65,WSW,248,0.0,0.0,62,0.00,,,0.00,WUHU216HW,2013-06-16 03:09:00,
2013-06-15 23:15:00,64.2,50.8,29.65,WSW,248,0.0,0.0,62,0.00,,,0.00,WUHU216HW,2013-06-16 03:15:00,
2013-06-15 23:20:00,64.2,51.2,29.66,WSW,248,0.0,0.0,63,0.00,,,0.00,WUHU216HW,2013-06-16 03:20:00,
2013-06-15 23:25:00,64.2,51.7,29.65,WSW,248,0.0,0.0,64,0.00,,,0.00,WUHU216HW,2013-06-16 03:25:00,
2013-06-15 23:30:00,64.0,51.1,29.65,WSW,248,0.0,0.0,63,0.00,,,0.00,WUHU216HW,2013-06-16 03:30:00,
2013-06-15 23:35:00,64.0,51.1,29.65,WSW,248,0.0,0.0,63,0.00,,,0.00,WUHU216HW,2013-06-16 03:35:00,
2013-06-15 23:40:00,64.0,50.7,29.65,WSW,248,0.0,0.0,62,0.00,,,0.00,WUHU216HW,2013-06-16 03:40:00,
2013-06-15 23:45:00,64.0,50.7,29.65,WSW,248,0.0,0.0,62,0.00,,,0.00,WUHU216HW,2013-06-16 03:45:00,
2013-06-15 23:50:00,64.0,50.2,29.65,WSW,248,0.0,0.0,61,0.00,,,0.00,WUHU216HW,2013-06-16 03:50:00,
2013-06-15 23:55:00,64.0,50.7,29.65,WSW,248,0.0,0.0,62,0.00,,,0.00,WUHU216HW,2013-06-16 03:55:00,